Home   Weather   Santa Maria   Past weeks

Flag for Cabo Verde Past Weather in Santa Maria, Cabo Verde — Yesterday and Last 2 Weeks

Now
79 °F

Passing clouds.


Feels Like: 82 °F
Forecast: 78 / 85 °F
Wind: 12 mph from Northeast

Location: Sal

Current Time: Sep 29, 2016 at 2:20:15 AM

Latest Report: Sep 29, 2016 at 2:00 AM


Visibility: 5 mi

Pressure: 29.92 "Hg

Humidity: 84%

Dew Point: 73 °F

Location of Santa MariaLocation

Past Weather in Santa Maria — Graph

°F

Santa Maria Temperature Yesterday

Maximum temperature yesterday: 88 °F (at 1:00 PM)
Minimum temperature yesterday: 77 °F (at 4:00 AM)
Average temperature yesterday: 81 °F

High & Low Weather Summary for the Past Weeks

 TemperatureHumidityPressure
High90 °F (Sep 15, 1:00 PM)100% (Sep 14, 2:00 AM)30.01 "Hg (Sep 14, 2:00 AM)
Low75 °F (Sep 26, 4:00 AM)55% (Sep 25, 1:00 PM)29.83 "Hg (Sep 14, 2:00 AM)
Average81 °F79%29.93 "Hg
* Reported Sep 14 2:00 AM — Sep 29 1:00 AM, Santa Maria, Weather by CustomWeather, © 2016

Note: Actual official high and low records may vary slightly from our data, if they occured in-between our weather recording intervals... More about our weather records

Advertising

Santa Maria Weather History for the Previous 24 Hours

Scroll right to see more
 ConditionsComfort  
Time TempWeatherWind HumidityBarometerVisibility
1:00 AM
Thu, Sep 29
79 °FPassing clouds.9 mph84%29.95 "Hg5 mi
12:00 AM79 °FPassing clouds.10 mph84%29.95 "Hg5 mi
11:00 PM
Wed, Sep 28
79 °FPassing clouds.10 mph84%29.95 "Hg5 mi
10:00 PM79 °FPassing clouds.10 mph84%29.95 "Hg5 mi
9:00 PM79 °FPassing clouds.10 mph84%29.95 "Hg6 mi
8:00 PM79 °FPassing clouds.9 mph84%29.92 "Hg6 mi
7:00 PM81 °FPassing clouds.9 mph79%29.89 "Hg6 mi
6:00 PM82 °FPassing clouds.12 mph74%29.86 "Hg6 mi
5:00 PM84 °FPassing clouds.9 mph70%29.86 "Hg6 mi
4:00 PM84 °FPartly sunny.13 mph70%29.86 "HgN/A
3:00 PM86 °FPartly sunny.13 mph62%29.89 "HgN/A
2:00 PM88 °FPartly sunny.12 mph59%29.92 "HgN/A
1:00 PM88 °FPartly sunny.12 mph59%29.92 "HgN/A
12:00 PM86 °FPartly sunny.9 mph62%29.95 "HgN/A
11:00 AM86 °FPartly sunny.13 mph62%29.95 "HgN/A
10:00 AM84 °FPartly sunny.9 mph66%29.95 "HgN/A
9:00 AM84 °FPartly sunny.12 mph66%29.95 "HgN/A
8:00 AM79 °FScattered clouds.12 mph79%29.92 "Hg6 mi
7:00 AM77 °FScattered clouds.8 mph83%29.92 "Hg6 mi
6:00 AM77 °FScattered clouds.9 mph83%29.89 "Hg6 mi
5:00 AM77 °FScattered clouds.8 mph83%29.89 "Hg6 mi
4:00 AM77 °FPassing clouds.9 mph89%29.86 "Hg6 mi
3:00 AM79 °FPassing clouds.10 mph79%29.89 "Hg6 mi
2:00 AM79 °FPassing clouds.10 mph79%29.89 "Hg6 mi
Weather by CustomWeather, © 2016

See weather overviewHow to use our weather pages